Time,TemperatureF,DewpointF,PressureIn,WindDirection,WindDirectionDegrees,WindSpeedMPH,WindSpeedGustMPH,Humidity,HourlyPrecipIn,Conditions,Clouds,dailyrainin,SolarRadiationWatts/m^2,SoftwareType,DateUTC
2013-07-23 00:02:00,57.0,-99.9,-100.00,South,181,1.0,5.0,0,0.00,,,0.78,0.000000,,2013-07-23 07:02:00,
2013-07-23 00:33:00,57.0,-99.9,-100.00,SW,216,0.0,4.0,0,0.00,,,0.78,0.000000,,2013-07-23 07:33:00,
2013-07-23 00:42:00,57.0,-99.9,-100.00,SW,216,0.0,4.0,0,0.00,,,0.78,0.000000,,2013-07-23 07:42:00,
2013-07-23 00:52:00,57.0,-99.9,-100.00,SW,216,0.0,4.0,0,0.00,,,0.78,0.000000,,2013-07-23 07:52:00,
2013-07-23 01:01:00,57.0,-99.9,-100.00,SW,216,0.0,4.0,0,0.00,,,0.78,0.000000,,2013-07-23 08:01:00,
2013-07-23 01:33:00,55.0,-99.9,-100.00,SSE,163,0.0,2.0,0,0.00,,,0.78,0.000000,,2013-07-23 08:33:00,
2013-07-23 01:43:00,55.0,-99.9,-100.00,SSE,163,0.0,2.0,0,0.00,,,0.78,0.000000,,2013-07-23 08:43:00,
2013-07-23 01:52:00,55.0,-99.9,-100.00,SSE,163,0.0,2.0,0,0.00,,,0.78,0.000000,,2013-07-23 08:52:00,
2013-07-23 02:01:00,55.0,-99.9,-100.00,SSE,163,0.0,2.0,0,0.00,,,0.78,0.000000,,2013-07-23 09:01:00,
2013-07-23 02:33:00,54.0,-99.9,-100.00,South,172,0.0,0.0,0,0.00,,,0.78,0.000000,,2013-07-23 09:33:00,
2013-07-23 02:43:00,54.0,-99.9,-100.00,South,172,0.0,0.0,0,0.00,,,0.78,0.000000,,2013-07-23 09:43:00,
2013-07-23 02:53:00,54.0,-99.9,-100.00,South,172,0.0,0.0,0,0.00,,,0.78,0.000000,,2013-07-23 09:53:00,
2013-07-23 03:02:00,54.0,-99.9,-100.00,South,172,0.0,0.0,0,0.00,,,0.78,0.000000,,2013-07-23 10:02:00,
2013-07-23 03:22:00,54.0,-99.9,-100.00,South,170,1.0,4.0,0,0.00,,,0.78,0.000000,,2013-07-23 10:22:00,
2013-07-23 03:32:00,54.0,-99.9,-100.00,South,170,1.0,4.0,0,0.00,,,0.78,0.000000,,2013-07-23 10:32:00,
2013-07-23 03:44:00,54.0,-99.9,-100.00,South,170,1.0,4.0,0,0.00,,,0.78,0.000000,,2013-07-23 10:44:00,
2013-07-23 03:52:00,54.0,-99.9,-100.00,South,170,1.0,4.0,0,0.00,,,0.78,0.000000,,2013-07-23 10:52:00,
2013-07-23 04:02:00,54.0,-99.9,-100.00,South,170,1.0,4.0,0,0.00,,,0.78,0.000000,,2013-07-23 11:02:00,
2013-07-23 04:32:00,55.0,-99.9,-100.00,South,172,3.0,4.0,0,0.00,,,0.78,0.000000,,2013-07-23 11:32:00,
2013-07-23 04:43:00,55.0,-99.9,-100.00,South,172,3.0,4.0,0,0.00,,,0.78,0.000000,,2013-07-23 11:43:00,
2013-07-23 04:52:00,55.0,-99.9,-100.00,South,172,3.0,4.0,0,0.00,,,0.78,0.000000,,2013-07-23 11:52:00,
2013-07-23 05:02:00,55.0,-99.9,-100.00,South,172,3.0,4.0,0,0.00,,,0.78,0.000000,,2013-07-23 12:02:00,
2013-07-23 05:33:00,56.0,-99.9,-100.00,SW,230,0.0,7.0,0,0.00,,,0.78,0.000000,,2013-07-23 12:33:00,
2013-07-23 05:43:00,56.0,-99.9,-100.00,SW,230,0.0,7.0,0,0.00,,,0.78,0.000000,,2013-07-23 12:43:00,
2013-07-23 06:02:00,56.0,-99.9,-100.00,SW,230,0.0,7.0,0,0.00,,,0.78,0.000000,,2013-07-23 13:02:00,
2013-07-23 06:32:00,55.0,-99.9,-100.00,South,176,2.0,6.0,0,0.00,,,0.78,5.000000,,2013-07-23 13:32:00,
2013-07-23 06:43:00,55.0,-99.9,-100.00,South,176,2.0,6.0,0,0.00,,,0.78,5.000000,,2013-07-23 13:43:00,
2013-07-23 06:53:00,55.0,-99.9,-100.00,South,176,2.0,6.0,0,0.00,,,0.78,5.000000,,2013-07-23 13:53:00,
2013-07-23 07:02:00,55.0,-99.9,-100.00,South,176,2.0,6.0,0,0.00,,,0.78,5.000000,,2013-07-23 14:02:00,
2013-07-23 07:03:00,58.0,-99.9,-100.00,South,176,1.0,6.0,0,0.00,,,0.78,91.000000,,2013-07-23 14:03:00,
2013-07-23 07:33:00,58.0,-99.9,-100.00,South,176,1.0,6.0,0,0.00,,,0.78,91.000000,,2013-07-23 14:33:00,
2013-07-23 07:44:00,58.0,-99.9,-100.00,South,176,1.0,6.0,0,0.00,,,0.78,91.000000,,2013-07-23 14:44:00,
2013-07-23 07:54:00,58.0,-99.9,-100.00,South,176,1.0,6.0,0,0.00,,,0.78,91.000000,,2013-07-23 14:54:00,
2013-07-23 08:43:00,68.0,-99.9,-100.00,SW,232,1.0,7.0,0,0.00,,,0.78,307.000000,,2013-07-23 15:43:00,
2013-07-23 08:52:00,68.0,-99.9,-100.00,SW,232,1.0,7.0,0,0.00,,,0.78,307.000000,,2013-07-23 15:52:00,
2013-07-23 09:01:00,68.0,-99.9,-100.00,SW,232,1.0,7.0,0,0.00,,,0.78,307.000000,,2013-07-23 16:01:00,
2013-07-23 09:33:00,73.0,-99.9,-100.00,West,277,3.0,7.0,0,0.01,,,0.79,579.000000,,2013-07-23 16:33:00,
2013-07-23 09:43:00,73.0,-99.9,-100.00,West,277,3.0,7.0,0,0.01,,,0.79,579.000000,,2013-07-23 16:43:00,
2013-07-23 09:52:00,73.0,-99.9,-100.00,West,277,3.0,7.0,0,0.01,,,0.79,579.000000,,2013-07-23 16:52:00,
2013-07-23 10:02:00,73.0,-99.9,-100.00,West,277,3.0,7.0,0,0.01,,,0.79,579.000000,,2013-07-23 17:02:00,
2013-07-23 10:03:00,75.0,-99.9,-100.00,ENE,75,3.0,8.0,0,0.00,,,0.79,727.000000,,2013-07-23 17:03:00,
2013-07-23 10:33:00,75.0,-99.9,-100.00,ENE,75,3.0,8.0,0,0.00,,,0.79,727.000000,,2013-07-23 17:33:00,
2013-07-23 10:42:00,75.0,-99.9,-100.00,ENE,75,3.0,8.0,0,0.00,,,0.79,727.000000,,2013-07-23 17:42:00,
2013-07-23 10:57:00,75.0,-99.9,-100.00,ENE,75,3.0,8.0,0,0.00,,,0.79,727.000000,,2013-07-23 17:57:00,
2013-07-23 11:03:00,77.0,-99.9,-100.00,WSW,256,4.0,10.0,0,0.00,,,0.79,811.000000,,2013-07-23 18:03:00,
2013-07-23 11:49:00,77.0,-99.9,-100.00,WSW,256,4.0,10.0,0,0.00,,,0.79,811.000000,,2013-07-23 18:49:00,
2013-07-23 11:59:00,77.0,-99.9,-100.00,WSW,256,4.0,10.0,0,0.00,,,0.79,811.000000,,2013-07-23 18:59:00,
2013-07-23 12:03:00,77.0,-99.9,-100.00,West,271,3.0,11.0,0,0.00,,,0.79,888.000000,,2013-07-23 19:03:00,
2013-07-23 12:50:00,77.0,-99.9,-100.00,West,271,3.0,11.0,0,0.00,,,0.79,888.000000,,2013-07-23 19:50:00,
2013-07-23 12:57:00,77.0,-99.9,-100.00,West,271,3.0,11.0,0,0.00,,,0.79,888.000000,,2013-07-23 19:57:00,
2013-07-23 13:35:00,80.0,-99.9,-100.00,WSW,247,4.0,11.0,0,0.00,,,0.79,954.000000,,2013-07-23 20:35:00,
2013-07-23 13:48:00,80.0,-99.9,-100.00,WSW,247,4.0,11.0,0,0.00,,,0.79,954.000000,,2013-07-23 20:48:00,
2013-07-23 14:03:00,77.0,-99.9,-100.00,West,264,5.0,14.0,0,-99.99,,,-99.99,760.000000,,2013-07-23 21:03:00,
2013-07-23 14:39:00,77.0,-99.9,-100.00,West,264,5.0,14.0,0,-99.99,,,-99.99,760.000000,,2013-07-23 21:39:00,
2013-07-23 14:48:00,77.0,-99.9,-100.00,West,264,5.0,14.0,0,-99.99,,,-99.99,760.000000,,2013-07-23 21:48:00,
2013-07-23 14:57:00,77.0,-99.9,-100.00,West,264,5.0,14.0,0,-99.99,,,-99.99,760.000000,,2013-07-23 21:57:00,
2013-07-23 15:03:00,79.0,-99.9,-100.00,SSW,211,3.0,13.0,0,0.00,,,0.45,767.000000,,2013-07-23 22:03:00,
2013-07-23 15:37:00,79.0,-99.9,-100.00,SSW,211,3.0,13.0,0,0.00,,,0.45,767.000000,,2013-07-23 22:37:00,
2013-07-23 15:48:00,79.0,-99.9,-100.00,SSW,211,3.0,13.0,0,0.00,,,0.45,767.000000,,2013-07-23 22:48:00,
2013-07-23 16:03:00,70.0,-99.9,-100.00,SE,126,8.0,16.0,0,-99.99,,,0.25,411.000000,,2013-07-23 23:03:00,
2013-07-23 16:48:00,70.0,-99.9,-100.00,SE,126,8.0,16.0,0,-99.99,,,0.25,411.000000,,2013-07-23 23:48:00,
2013-07-23 17:01:00,70.0,-99.9,-100.00,SE,126,8.0,16.0,0,-99.99,,,0.25,411.000000,,2013-07-24 00:01:00,
2013-07-23 17:03:00,70.0,-99.9,-100.00,ENE,69,2.0,15.0,0,0.00,,,0.10,176.000000,,2013-07-24 00:03:00,
2013-07-23 17:34:00,70.0,-99.9,-100.00,ENE,69,2.0,15.0,0,0.00,,,0.10,176.000000,,2013-07-24 00:34:00,
2013-07-23 17:51:00,70.0,-99.9,-100.00,ENE,69,2.0,15.0,0,0.00,,,0.10,176.000000,,2013-07-24 00:51:00,
2013-07-23 17:59:00,70.0,-99.9,-100.00,ENE,69,2.0,15.0,0,0.00,,,0.10,176.000000,,2013-07-24 00:59:00,
2013-07-23 18:03:00,74.0,-99.9,-100.00,South,170,2.0,7.0,0,0.00,,,0.01,333.000000,,2013-07-24 01:03:00,
2013-07-23 18:49:00,74.0,-99.9,-100.00,South,170,2.0,7.0,0,0.00,,,0.01,333.000000,,2013-07-24 01:49:00,
2013-07-23 19:40:00,74.0,-99.9,-100.00,NW,306,1.0,7.0,0,0.00,,,0.01,182.000000,,2013-07-24 02:40:00,
2013-07-23 19:58:00,74.0,-99.9,-100.00,NW,306,1.0,7.0,0,0.00,,,0.01,182.000000,,2013-07-24 02:58:00,
2013-07-23 20:40:00,66.0,-99.9,-100.00,South,171,1.0,6.0,0,0.00,,,0.01,9.000000,,2013-07-24 03:40:00,
2013-07-23 20:47:00,66.0,-99.9,-100.00,South,171,1.0,6.0,0,0.00,,,0.01,9.000000,,2013-07-24 03:47:00,
2013-07-23 20:59:00,66.0,-99.9,-100.00,South,171,1.0,6.0,0,0.00,,,0.01,9.000000,,2013-07-24 03:59:00,
2013-07-23 21:02:00,66.0,-99.9,-100.00,South,171,1.0,6.0,0,0.00,,,0.01,9.000000,,2013-07-24 04:02:00,
2013-07-23 21:32:00,59.0,-99.9,-100.00,SSE,165,0.0,4.0,0,0.00,,,0.01,0.000000,,2013-07-24 04:32:00,
2013-07-23 21:44:00,59.0,-99.9,-100.00,SSE,165,0.0,4.0,0,0.00,,,0.01,0.000000,,2013-07-24 04:44:00,
2013-07-23 21:53:00,59.0,-99.9,-100.00,SSE,165,0.0,4.0,0,0.00,,,0.01,0.000000,,2013-07-24 04:53:00,
2013-07-23 22:02:00,59.0,-99.9,-100.00,SSE,165,0.0,4.0,0,0.00,,,0.01,0.000000,,2013-07-24 05:02:00,
2013-07-23 22:33:00,57.0,-99.9,-100.00,SSE,159,3.0,5.0,0,0.00,,,-99.99,0.000000,,2013-07-24 05:33:00,
2013-07-23 22:43:00,57.0,-99.9,-100.00,SSE,159,3.0,5.0,0,0.00,,,-99.99,0.000000,,2013-07-24 05:43:00,
2013-07-23 22:52:00,57.0,-99.9,-100.00,SSE,159,3.0,5.0,0,0.00,,,-99.99,0.000000,,2013-07-24 05:52:00,
2013-07-23 23:01:00,57.0,-99.9,-100.00,SSE,159,3.0,5.0,0,0.00,,,-99.99,0.000000,,2013-07-24 06:01:00,
2013-07-23 23:35:00,56.0,-99.9,-100.00,SSW,208,0.0,5.0,0,0.00,,,0.01,0.000000,,2013-07-24 06:35:00,
2013-07-23 23:43:00,56.0,-99.9,-100.00,SSW,208,0.0,5.0,0,0.00,,,0.01,0.000000,,2013-07-24 06:43:00,
2013-07-23 23:53:00,56.0,-99.9,-100.00,SSW,208,0.0,5.0,0,0.00,,,0.01,0.000000,,2013-07-24 06:53:00,